Flag Weather past 2 weeks in Washington DC, District of Columbia, U.S.A.

Now
40 °F

Partly sunny.


Feels Like: 33 °F
Forecast: 28 / 39 °F
Wind: 12 mph from Northwest

Location: Reagan National Airport

Current Time: Nov 28, 2014 at 3:30:20 PM

Latest Report: Nov 28, 2014 at 2:52 PM


Visibility: 10 mi

Pressure: 30.28 "Hg

Humidity: 41%

Dew point: 18 °F

Location of Washington DCLocation

Historic Weather in Washington DC — Graph

°F

Washington DC temperature yesterday

Maximum temperature yesterday: 49 °F (at 1:52 PM)
Minimum temperature yesterday: 38 °F (at 1:52 AM)
Average temperature yesterday: 42 °F

Past Weeks' High & Low Weather Summary

 TemperatureHumidityPressure
High74 °F (Nov 24, 2:52 PM)88% (Nov 24, 12:01 AM)30.57 "Hg (Nov 24, 12:01 AM)
Low22 °F (Nov 19, 4:52 AM)23% (Nov 18, 2:52 PM)29.57 "Hg (Nov 17, 3:00 PM)
Average43 °F51%30.13 "Hg
* Reported Nov 13 1:52 PM — Nov 28 1:52 PM, Washington DC, Weather by CustomWeather, © 2014

Note: Actual official high and low records may vary slightly from our data, if they occured in-between our weather recording intervals... More about our weather records

Advertising

Washington DC weather history for previous 24 hours

 ConditionsComfort  
Time TempWeatherWind HumidityBarometerVisibility
1:52 PM
Nov 28
40 °FPartly sunny.12 mph43%30.28 "Hg10 mi
12:52 PM40 °FPartly sunny.14 mph41%30.29 "Hg10 mi
11:52 AM41 °FPartly sunny.10 mph41%30.29 "Hg10 mi
10:52 AM39 °FPartly sunny.12 mph50%30.32 "Hg10 mi
9:52 AM39 °FPartly sunny.10 mph46%30.32 "Hg10 mi
8:52 AM38 °FScattered clouds.9 mph48%30.32 "Hg10 mi
7:52 AM37 °FScattered clouds.12 mph50%30.30 "Hg10 mi
6:52 AM36 °FPassing clouds.14 mph54%30.28 "Hg10 mi
5:52 AM35 °FClear.9 mph54%30.25 "Hg10 mi
4:52 AM35 °FClear.6 mph56%30.24 "Hg10 mi
3:52 AM35 °FClear.5 mph56%30.22 "Hg10 mi
2:52 AM36 °FClear.7 mph54%30.22 "Hg10 mi
1:52 AM37 °FPassing clouds.10 mph54%30.21 "Hg10 mi
12:52 AM38 °FPassing clouds.12 mph55%30.19 "Hg10 mi
11:52 PM
Nov 27
39 °FPassing clouds.12 mph60%30.19 "Hg10 mi
10:52 PM41 °FPassing clouds.9 mph58%30.18 "Hg10 mi
9:52 PM41 °FPassing clouds.7 mph58%30.17 "Hg10 mi
8:52 PM41 °FOvercast.9 mph60%30.16 "Hg10 mi
7:52 PM40 °FPassing clouds.6 mph60%30.15 "Hg10 mi
6:52 PM41 °FPassing clouds.7 mph60%30.14 "Hg10 mi
5:52 PM42 °FPassing clouds.8 mph57%30.11 "Hg10 mi
4:52 PM44 °FPartly cloudy.12 mph49%30.10 "Hg10 mi
3:52 PM47 °FPartly sunny.12 mph44%30.07 "Hg10 mi
Weather by CustomWeather, © 2014

See weather overviewHow to use our weather pages